Location: Burbank
(38.7788°N, 114.0429°W)
Time: 23:11:28
(UTC+00:00)

Transit 2A - Pass Details

Date: 16 May 2026
Orbit: 595 x 949 km, 66.7° (Epoch: 5 June)

Event Time Altitude Azimuth Distance (km) Brightness Sun altitude
Rises 06:44:39 0° 344° (NNW) 3,182 10.4 -31.0°
Reaches altitude 10° 06:47:58 10° 5° (N) 2,179 9.2 -31.2°
Maximum altitude 06:51:06 17° 45° (NE) 1,703 8.1 -31.3°
Enters shadow 06:51:40 16° 54° (NE) 1,708 8.0 -31.3°
Drops below altitude 10° 06:54:04 10° 85° (E) 2,048 - -31.4°
Sets 06:57:02 0° 107° (ESE) 2,903 - -31.5°
